STARLINK-2049, 47356

Orbit data source: Space-Track

STARLINK-2049, 47356 is a payload satellite owned by SpaceX/Seattle (US) in LEO that was launched on Wed, 20 Jan 2021 UTC via an FALCON 9 launch vehicle from the Air Force Eastern Test Range (AFETR). Payload-class satellites include a variety of spacecraft equipped with specific instruments for various scientific and technological missions. These include communications satellites like Starlink; space stations such as the ISS; scientific satellites like the Hubble; Earth observation satellites from companies like Planet Labs, Umbra, and HawkEye 360; GPS; miniature CubeSats for education and research; and military/defense satellites.

Loading next visibility...
Identifier
47356, 2021-005H
Orbit
LEO
Country
Flag of USUS
Related business
Manufacturer
SpaceX/Seattle
Mission
Operational Commercial Communications
Bus & Motor
STARLINK, Unknown motor
Mass
260 kg wet, ~248 kg dry
Launch date (UTC)
2021-01-20 (5 years ago)
Launch vehicle
FALCON 9
Launch site
Air Force Eastern Test Range (AFETR)
Object type
Payload
Rocket body
Debris
Shape & HBR
Box + 1 Pan, 10.1 m
Radar Cross Section
13.562 m², Large (>1 m²)

Expand to show TLE details & history
Last TLE update: 2 days ago

TLE from 2 days ago
0 STARLINK-2049
1 47356U 21005H   26171.44840397  .00000047  00000-0  13298-4 0  9997
2 47356  53.1586 278.9193 0001333  93.7093 266.4061 15.31700235299120
Epoch: 2026-06-20T10:45Z
TLE epoch observation values (Epoch: 2026-06-20T10:45:42.103Z)
Latitude
-0.00004°
Longitude
-151.16903°
Altitude
471.697 km
Speed
7.631 km/s
True Right ascension
18h 35m 40s
True Declination
0° 00' 00"
Sunlit
Object was in full shadow at epoch
Visualization orbit readout
Latitude
Unknown
Longitude
Unknown
Altitude
Unknown
Speed
Unknown
Apparent Right ascension
Unknown
Apparent Declination
Unknown
Sunlit
N/A
Visualization observer readout
Local Sidereal Time
23:08:41
Azimuth
Unknown
Elevation
Unknown
Doppler factor
Unknown
Orbital elements
Apogee altitude
471.909 km
Perigee altitude
470.083 km
Semi-major axis
6,849.133 km
Eccentricity
0.00013
Inclination
53.1586°
RAAN
278.9193°
Arg. of periapsis
93.7093°
True anomaly
266.39086°
Mean anomaly
266.4061°
Eccentric anomaly
266.39848°
Mean motion
3.82904 °/min
Orbital period
94.02 mins
BSTAR
0.000013298
Loading maneuver chart data...
Computing Atmospheric mass density...

Documentation

Showing up to 5 results
|